Weather History for KSJT - October, 2011

Change the Weather History Date:

Sunday, October 2, 2011

  Actual Average Record
Temperature  
Mean Temperature 72 °F 70 °F  
Max Temperature 91 °F 83 °F 100 °F (1951)
Min Temperature 52 °F 58 °F 37 °F (1935)
Degree Days  
Heating Degree Days 0 1  
Month to date heating degree days 0 2  
Since 1 July heating degree days 0 11  
Cooling Degree Days 7 6  
Month to date cooling degree days 12 13  
Year to date cooling degree days 3558 2378  
Growing Degree Days 22 (Base 50)    
Moisture  
Dew Point 42 °F    
Average Humidity 38    
Maximum Humidity 54    
Minimum Humidity 21    
Precipitation  
Precipitation 0.00 in 0.08 in 2.36 in (1927)
Month to date precipitation 0.00 0.17  
Year to date precipitation 5.01 16.70  
Snow  
Snow 0.00 in 0.00 in 0.00 in (2002)
Month to date snowfall 0.0 0.0  
Since 1 July snowfall 0.0 0.0  
Snow Depth 0.00 in    
Sea Level Pressure  
Sea Level Pressure 30.12 in    
Wind  
Wind Speed 5 mph (ESE)    
Max Wind Speed 13 mph    
Max Gust Speed 18 mph    
Visibility 10 miles    
Events      
T = Trace of Precipitation, MM = Missing Value Source: NWS Daily Summary

Daily Weather History Graph

Daily Weather History Graph

Search for Another Location

Airport or City:

Trip Planner

Search our weather history database for the weather conditions in past years. The results will help you decide how hot, cold, wet, or windy it might be!

Date:

Astronomy

Oct. 02, 2011 Rise Set
Actual Time 7:36 AM CDT 7:26 PM CDT
Civil Twilight 7:11 AM CDT 7:50 PM CDT
Nautical Twilight 6:43 AM CDT 8:18 PM CDT
Astronomical Twilight 6:15 AM CDT 8:46 PM CDT
Moon 1:22 PM CDT (10/2) 11:47 PM CDT (10/2)
Length of Visible Light 12h 38m
Length of Day
11h 49m
Waxing Crescent, 35% of the Moon is Illuminated
Oct 2
Waxing Crescent
Oct 3
First Quarter
Oct 11
Full
Oct 19
Last Quarter
Oct 26
New

Hourly Weather History & Observations

Time (CDT) Temp. Heat Index Dew Point Humidity Pressure Visibility Wind Dir Wind Speed Gust Speed Precip Events Conditions
12:51 AM 66.0 °F - 32.0 °F 28% 30.11 in 10.0 mi Calm Calm - N/A   Clear
1:51 AM 66.0 °F - 30.9 °F 27% 30.12 in 10.0 mi Calm Calm - N/A   Clear
2:51 AM 63.0 °F - 39.0 °F 41% 30.12 in 10.0 mi NNE 3.5 mph - N/A   Clear
3:51 AM 60.1 °F - 34.0 °F 38% 30.12 in 10.0 mi NE 6.9 mph - N/A   Clear
4:51 AM 57.0 °F - 33.1 °F 40% 30.12 in 10.0 mi Calm Calm - N/A   Clear
5:51 AM 55.9 °F - 33.1 °F 42% 30.13 in 10.0 mi Calm Calm - N/A   Clear
6:51 AM 53.1 °F - 30.9 °F 43% 30.16 in 10.0 mi Calm Calm - N/A   Clear
7:51 AM 53.1 °F - 33.1 °F 47% 30.18 in 10.0 mi Calm Calm - N/A   Clear
8:51 AM 61.0 °F - 33.1 °F 35% 30.19 in 10.0 mi Calm Calm - N/A   Clear
9:51 AM 69.1 °F - 51.1 °F 53% 30.19 in 10.0 mi South 11.5 mph - N/A   Clear
10:51 AM 77.0 °F - 59.0 °F 54% 30.18 in 10.0 mi SSW 10.4 mph - N/A   Clear
11:51 AM 81.0 °F 81.1 °F 57.9 °F 45% 30.16 in 10.0 mi South 6.9 mph - N/A   Clear
12:51 PM 84.9 °F - 52.0 °F 32% 30.13 in 10.0 mi WSW 6.9 mph - N/A   Clear
1:51 PM 86.0 °F - 48.9 °F 28% 30.10 in 10.0 mi Variable 3.5 mph - N/A   Clear
2:51 PM 89.1 °F - 46.9 °F 23% 30.07 in 10.0 mi East 8.1 mph - N/A   Clear
3:51 PM 89.1 °F - 46.9 °F 23% 30.05 in 10.0 mi Calm Calm - N/A   Partly Cloudy
4:51 PM 90.0 °F - 46.0 °F 22% 30.04 in 10.0 mi Calm Calm - N/A   Partly Cloudy
5:51 PM 89.1 °F - 45.0 °F 22% 30.04 in 10.0 mi East 10.4 mph - N/A   Scattered Clouds
6:51 PM 87.1 °F - 44.1 °F 22% 30.05 in 10.0 mi East 8.1 mph - N/A   Clear
7:51 PM 82.0 °F - 44.1 °F 26% 30.06 in 10.0 mi ESE 9.2 mph - N/A   Clear
8:51 PM 78.1 °F - 44.1 °F 30% 30.07 in 10.0 mi East 8.1 mph - N/A   Clear
9:51 PM 73.0 °F - 43.0 °F 34% 30.09 in 10.0 mi ESE 5.8 mph - N/A   Clear
10:51 PM 77.0 °F - 37.4 °F 24% 30.15 in 10.0 mi SE 10.4 mph - N/A   Clear
11:51 PM 73.4 °F - 37.4 °F 27% 30.15 in 10.0 mi SSE 6.9 mph - N/A   Clear